Regional Weather Roundup
Issued by NWS Cleveland, OH

Home | Current Version | Previous Version | Text Only | Print | Product List | Glossary Off
Versions: 1 2 3 4 5 6 7 8 9 10 11 12 13 14 15 16 17 18 19 20 21 22 23 24 25 26 27 28 29 30 31 32 33 34 35 36 37 38 39 40 41 42 43 44 45 46 47 48 49 50

000
ASUS41 KCLE 030710
RWRCLE
OHIO REGIONAL WEATHER ROUNDUP
NATIONAL WEATHER SERVICE CLEVELAND, OH
300 AM EDT THU SEP 03 2015

NOTE: "FAIR" INDICATES FEW OR NO CLOUDS BELOW 12,000 FEET WITH NO
SIGNIFICANT WEATHER AND/OR OBSTRUCTIONS TO VISIBILITY.

OHZ001>008-015>018-024>027-034-035-043-044-030800-
   NORTHWEST OHIO

CITY           SKY/WX    TMP DP  RH WIND       PRES   REMARKS
DEFIANCE       CLOUDY    73  66  78 SW3       29.99F
FINDLAY        PTCLDY    71  65  81 CALM      29.98F
TOLEDO EXPRESS MOCLDY    72  68  87 W3        29.97F
TOLEDO EXEC    PTCLDY    73  68  84 SW3       29.98F
LIMA           PTCLDY    70  67  90 S3        30.00F
$$

OHZ009>014-019>023-028>033-038-089-030800-
   NORTHEAST OHIO

CITY           SKY/WX    TMP DP  RH WIND       PRES   REMARKS
CLE-HOPKINS    PTCLDY    71  67  87 SW3       29.98F
CLE-LAKEFRONT  PTCLDY    75  67  76 SW5       29.94F
CUY CO. ARPT   NOT AVBL
LORAIN-ELYRIA  CLEAR     69  66  90 W7        29.97F
ASHTABULA      PTCLDY    68  68 100 CALM      29.97F FOG
AKRON-CANTON   PTCLDY    71  67  87 W6        29.99F FOG
WOOSTER        CLEAR     65  64  97 CALM      30.00F FOG
MANSFIELD      MOCLDY    72  66  81 SW8       30.01F
YOUNGSTOWN     MOCLDY    69  67  93 CALM      29.98F
$$

OHZ042-051>053-060>062-070>072-077>081-030800-
  SOUTHWEST OHIO

CITY           SKY/WX    TMP DP  RH WIND       PRES   REMARKS
CINC-COVINGTON MOCLDY    70  67  90 CALM      30.02F
CINC-LUNKEN    PTCLDY    67  67 100 S3        30.01F FOG
HAMILTON       CLEAR     68  66  93 CALM      30.01F FOG
DAYTON         PTCLDY    71  68  90 SW6       30.02F
WRIGHT-PAT AFB PTCLDY    67  67  99 CALM      30.01F
DAYTON GENERAL FAIR      69  65  86 CALM      30.01F
WILMINGTON     CLEAR     65  63  93 CALM      30.02F FOG
$$

OHZ036-037-039>041-045>050-054>059-063>069-073>076-082>088-030800-
  CENTRAL AND SOUTHEAST OHIO

CITY           SKY/WX    TMP DP  RH WIND       PRES   REMARKS
COLUMBUS       CLOUDY    72  67  84 CALM      29.99F
OSU AIRPORT    MOCLDY    71  67  87 CALM      30.00F
BOLTON FIELD   CLOUDY    69  68  94 W6        30.01F
RICKENBACK AFB CLOUDY    70  68  94 CALM      29.99F
NEWARK         MOCLDY    70  67  90 S3        29.99F
MARION         MOCLDY    72  67  84 W6        30.00F
LANCASTER      MOCLDY    70  67  90 CALM      30.00F
ZANESVILLE     MOCLDY    70  65  84 CALM      30.00F
NEW PHILLY     CLEAR     69  68  96 SE5       30.00S
$$


USA.gov is the U.S. government's official web portal to all federal, state and local government web resources and services.